Regional Weather Roundup
Issued by NWS

Home | Current Version | Previous Version | Graphics & Text | Print | Product List | Glossary On
Versions: 1 2 3 4 5 6 7 8 9 10 11 12 13 14 15 16 17 18 19 20 21 22 23 24 25 26 27 28 29 30 31 32 33 34 35 36 37 38 39 40 41 42 43 44 45 46 47 48 49 50
000
ASUS43 KTOP 232059
RWRKS

WEATHER ROUNDUP FOR KANSAS
NATIONAL WEATHER SERVICE GOODLAND KS
400 PM CDT SAT MAY 23 2015

NOTE:  "FAIR" INDICATES FEW OR NO CLOUDS BELOW 12,000 FEET WITH NO
SIGNIFICANT WEATHER AND/OR OBSTRUCTIONS TO VISIBILITY.

KSZ001>006-013>018-027>032-041>047-232200-
NORTHWEST KANSAS

CITY           SKY/WX    TMP DP  RH WIND       PRES   REMARKS
GOODLAND       PTSUNNY   68  53  58 SE16G23   29.92F
HAYS           CLOUDY    61  52  72 E14       29.99S
HILL CITY      CLOUDY    64  57  78 E16       29.97F
RUSSELL        CLOUDY    59  57  93 E17       29.96F
$$

KSZ061>065-074>080-084>089-232200-
SOUTHWEST KANSAS

CITY           SKY/WX    TMP DP  RH WIND       PRES   REMARKS
DODGE CITY     CLOUDY    60  55  83 SE17      29.94F
ELKHART          N/A     66  54  65 SE20        N/A
GARDEN CITY    PTSUNNY   66  56  70 SE16G31   29.92F
GREAT BEND     CLOUDY    59  54  82 E5        29.97R
LIBERAL        CLOUDY    63  55  77 SE13      29.95F
$$

KSZ066>073-081>083-090>101-232200-
SOUTHEAST KANSAS

CITY           SKY/WX    TMP DP  RH WIND       PRES   REMARKS
CHANUTE        CLOUDY    65  62  90 E13       30.06F
COFFEYVILLE    CLOUDY    72  65  78 SE14G20   30.03F
HUTCHINSON     RAIN      59  56  89 E15       30.04F FOG
NEWTON         CLOUDY    57  54  88 NE9       30.09F THUNDER
PARSONS        CLOUDY    70  65  84 VRB6      30.06F
WICHITA INTL   TSTM      59  57  93 NE14      30.03F FOG
WICHITA JABRA  TSTM      58  57  97 NE17      30.03F FOG
WICHITA MCCONL RAIN      59  57  94 N18       30.02F FOG
WINFIELD       LGT RAIN  59  59 100 NE16G25   30.02F
$$

KSZ007>012-019>026-033>040-048>060-102>105-232200-
NORTHEAST KANSAS

CITY           SKY/WX    TMP DP  RH WIND       PRES   REMARKS
CONCORDIA      CLOUDY    60  59  96 E13       30.04F
EMPORIA        TSTM      61  59  93 SE10      30.06F
LAWRENCE       CLOUDY    66  59  78 SE14      30.11F
MANHATTAN      RAIN      61  61 100 CALM      30.11F FOG
OLATHE IND     CLOUDY    66  61  84 SE10      30.12F
OLATHE EXE     CLOUDY    66  61  84 SE10      30.12F
SALINA         RAIN      60  58  92 SE16G33   30.01F FOG
TOPEKA BILLARD RAIN      65  61  87 SE15      30.10F FOG
TOPEKA FORBES  LGT RAIN  64  61  90 SE9       30.09F
$$



USA.gov is the U.S. government's official web portal to all federal, state and local government web resources and services.